Time,TemperatureF,DewpointF,PressureIn,WindDirection,WindDirectionDegrees,WindSpeedMPH,WindSpeedGustMPH,Humidity,HourlyPrecipIn,Conditions,Clouds,dailyrainin,SolarRadiationWatts/m^2,SoftwareType,DateUTC
2013-11-10 00:03:00,46.9,39.0,30.17,WSW,244,2.0,4.0,75,0.00,,,0.00,0,weatherlink.com 1.10,2013-11-10 05:03:00,
2013-11-10 00:18:00,46.5,39.0,30.18,WSW,244,1.0,4.0,75,0.00,,,0.00,0,weatherlink.com 1.10,2013-11-10 05:18:00,
2013-11-10 00:33:00,46.2,39.0,30.18,WSW,251,0.0,4.0,76,0.00,,,0.00,0,weatherlink.com 1.10,2013-11-10 05:33:00,
2013-11-10 00:48:00,46.0,39.0,30.18,WSW,251,0.0,5.0,76,0.00,,,0.00,0,weatherlink.com 1.10,2013-11-10 05:48:00,
2013-11-10 01:03:00,45.9,39.0,30.18,SW,229,1.0,5.0,76,0.00,,,0.00,0,weatherlink.com 1.10,2013-11-10 06:03:00,
2013-11-10 01:18:00,45.6,38.0,30.19,SW,229,0.0,2.0,75,0.00,,,0.00,0,weatherlink.com 1.10,2013-11-10 06:18:00,
2013-11-10 01:33:00,45.6,38.0,30.19,West,271,0.0,6.0,75,0.00,,,0.00,0,weatherlink.com 1.10,2013-11-10 06:33:00,
2013-11-10 01:48:00,45.7,38.0,30.19,West,281,0.0,5.0,74,0.00,,,0.00,0,weatherlink.com 1.10,2013-11-10 06:48:00,
2013-11-10 02:03:00,45.8,38.0,30.19,West,276,1.0,5.0,73,0.00,,,0.00,0,weatherlink.com 1.10,2013-11-10 07:03:00,
2013-11-10 02:18:00,46.0,37.0,30.20,NNW,340,6.0,7.0,71,0.00,,,0.00,0,weatherlink.com 1.10,2013-11-10 07:18:00,
2013-11-10 02:33:00,46.3,37.0,30.20,NW,309,6.0,8.0,69,0.00,,,0.00,0,weatherlink.com 1.10,2013-11-10 07:33:00,
2013-11-10 02:48:00,46.2,36.0,30.20,WNW,303,4.0,5.0,68,0.00,,,0.00,0,weatherlink.com 1.10,2013-11-10 07:48:00,
2013-11-10 03:03:00,46.0,36.0,30.21,West,276,2.0,5.0,68,0.00,,,0.00,0,weatherlink.com 1.10,2013-11-10 08:03:00,
2013-11-10 03:18:00,45.6,36.0,30.21,NNW,346,0.0,9.0,69,0.00,,,0.00,0,weatherlink.com 1.10,2013-11-10 08:18:00,
2013-11-10 03:33:00,45.2,36.0,30.22,WNW,288,1.0,12.0,69,0.00,,,0.00,0,weatherlink.com 1.10,2013-11-10 08:33:00,
2013-11-10 03:48:00,44.8,35.0,30.22,WNW,297,0.0,9.0,68,0.00,,,0.00,0,weatherlink.com 1.10,2013-11-10 08:48:00,
2013-11-10 04:03:00,44.1,35.0,30.22,NNE,32,0.0,7.0,70,0.00,,,0.00,0,weatherlink.com 1.10,2013-11-10 09:03:00,
2013-11-10 04:18:00,43.6,35.0,30.23,NNW,340,0.0,7.0,71,0.00,,,0.00,0,weatherlink.com 1.10,2013-11-10 09:18:00,
2013-11-10 04:34:00,43.2,34.0,30.23,WNW,303,2.0,8.0,71,0.00,,,0.00,0,weatherlink.com 1.10,2013-11-10 09:34:00,
2013-11-10 04:49:00,42.8,34.0,30.24,NE,51,1.0,6.0,71,0.00,,,0.00,0,weatherlink.com 1.10,2013-11-10 09:49:00,
2013-11-10 05:04:00,42.3,34.0,30.25,North,355,0.0,9.0,73,0.00,,,0.00,0,weatherlink.com 1.10,2013-11-10 10:04:00,
2013-11-10 05:19:00,41.9,34.0,30.26,ENE,63,2.0,8.0,73,0.00,,,0.00,0,weatherlink.com 1.10,2013-11-10 10:19:00,
2013-11-10 05:34:00,41.8,34.0,30.26,ENE,78,4.0,10.0,73,0.00,,,0.00,0,weatherlink.com 1.10,2013-11-10 10:34:00,
2013-11-10 05:49:00,41.2,33.0,30.27,SW,221,0.0,7.0,73,0.00,,,0.00,0,weatherlink.com 1.10,2013-11-10 10:49:00,
2013-11-10 06:04:00,40.6,33.0,30.27,North,5,0.0,4.0,74,0.00,,,0.00,0,weatherlink.com 1.10,2013-11-10 11:04:00,
2013-11-10 06:19:00,40.3,33.0,30.28,WNW,288,5.0,7.0,74,0.00,,,0.00,0,weatherlink.com 1.10,2013-11-10 11:19:00,
2013-11-10 06:34:00,40.2,32.0,30.29,NW,306,3.0,12.0,72,0.00,,,0.00,0,weatherlink.com 1.10,2013-11-10 11:34:00,
2013-11-10 06:49:00,39.7,31.0,30.29,NNE,14,0.0,9.0,72,0.00,,,0.00,0,weatherlink.com 1.10,2013-11-10 11:49:00,
2013-11-10 07:04:00,39.0,31.0,30.29,North,5,0.0,3.0,73,0.00,,,0.00,0,weatherlink.com 1.10,2013-11-10 12:04:00,
2013-11-10 07:19:00,38.4,31.0,30.30,NNW,347,0.0,2.0,75,0.00,,,0.00,0,weatherlink.com 1.10,2013-11-10 12:19:00,
2013-11-10 07:34:00,37.9,31.0,30.30,WNW,288,0.0,7.0,76,0.00,,,0.00,9,weatherlink.com 1.10,2013-11-10 12:34:00,
2013-11-10 07:49:00,37.6,31.0,30.32,WNW,286,1.0,4.0,77,0.00,,,0.00,16,weatherlink.com 1.10,2013-11-10 12:49:00,
2013-11-10 08:04:00,37.7,31.0,30.32,North,5,1.0,7.0,78,0.00,,,0.00,23,weatherlink.com 1.10,2013-11-10 13:04:00,
2013-11-10 08:19:00,37.9,31.0,30.33,NNW,338,2.0,9.0,76,0.00,,,0.00,33,weatherlink.com 1.10,2013-11-10 13:19:00,
2013-11-10 08:34:00,38.3,31.0,30.34,NNE,26,1.0,8.0,75,0.00,,,0.00,35,weatherlink.com 1.10,2013-11-10 13:34:00,
2013-11-10 08:49:00,38.9,32.0,30.35,NE,45,1.0,7.0,75,0.00,,,0.00,54,weatherlink.com 1.10,2013-11-10 13:49:00,
2013-11-10 09:04:00,39.8,32.0,30.35,North,349,4.0,8.0,73,0.00,,,0.00,77,weatherlink.com 1.10,2013-11-10 14:04:00,
2013-11-10 09:19:00,40.9,31.0,30.35,WNW,290,1.0,8.0,69,0.00,,,0.00,329,weatherlink.com 1.10,2013-11-10 14:19:00,
2013-11-10 09:35:00,41.8,32.0,30.36,WNW,293,2.0,8.0,67,0.00,,,0.00,373,weatherlink.com 1.10,2013-11-10 14:35:00,
2013-11-10 09:50:00,42.9,32.0,30.36,WNW,294,2.0,8.0,66,0.00,,,0.00,411,weatherlink.com 1.10,2013-11-10 14:50:00,
2013-11-10 10:05:00,43.1,32.0,30.36,WSW,257,2.0,10.0,64,0.00,,,0.00,452,weatherlink.com 1.10,2013-11-10 15:05:00,
2013-11-10 10:20:00,43.7,31.0,30.37,NNW,327,6.0,11.0,62,0.00,,,0.00,492,weatherlink.com 1.10,2013-11-10 15:20:00,
2013-11-10 10:35:00,43.7,31.0,30.38,WNW,300,1.0,11.0,61,0.00,,,0.00,524,weatherlink.com 1.10,2013-11-10 15:35:00,
2013-11-10 10:50:00,45.0,31.0,30.38,North,355,1.0,10.0,59,0.00,,,0.00,554,weatherlink.com 1.10,2013-11-10 15:50:00,
2013-11-10 11:05:00,45.1,30.0,30.39,West,277,2.0,12.0,57,0.00,,,0.00,580,weatherlink.com 1.10,2013-11-10 16:05:00,
2013-11-10 11:20:00,45.5,31.0,30.39,WNW,298,5.0,15.0,58,0.00,,,0.00,601,weatherlink.com 1.10,2013-11-10 16:20:00,
2013-11-10 11:35:00,46.0,31.0,30.39,NW,316,3.0,7.0,56,0.00,,,0.00,617,weatherlink.com 1.10,2013-11-10 16:35:00,
2013-11-10 11:50:00,47.0,31.0,30.39,NW,311,6.0,10.0,55,0.00,,,0.00,635,weatherlink.com 1.10,2013-11-10 16:50:00,
2013-11-10 12:05:00,47.2,31.0,30.39,NW,304,4.0,11.0,54,0.00,,,0.00,640,weatherlink.com 1.10,2013-11-10 17:05:00,
2013-11-10 12:20:00,47.7,30.0,30.38,WNW,299,0.0,8.0,51,0.00,,,0.00,645,weatherlink.com 1.10,2013-11-10 17:20:00,
2013-11-10 12:35:00,48.5,29.0,30.38,NNE,31,5.0,10.0,48,0.00,,,0.00,647,weatherlink.com 1.10,2013-11-10 17:35:00,
2013-11-10 12:50:00,48.6,30.0,30.38,West,281,4.0,9.0,49,0.00,,,0.00,650,weatherlink.com 1.10,2013-11-10 17:50:00,
2013-11-10 13:05:00,48.5,30.0,30.37,WNW,300,8.0,10.0,50,0.00,,,0.00,638,weatherlink.com 1.10,2013-11-10 18:05:00,
2013-11-10 13:20:00,49.1,31.0,30.37,SSE,167,0.0,9.0,51,0.00,,,0.00,624,weatherlink.com 1.10,2013-11-10 18:20:00,
2013-11-10 13:35:00,49.7,33.0,30.36,NNE,22,1.0,9.0,53,0.00,,,0.00,610,weatherlink.com 1.10,2013-11-10 18:35:00,
2013-11-10 13:50:00,50.2,31.0,30.36,WNW,284,5.0,9.0,48,0.00,,,0.00,587,weatherlink.com 1.10,2013-11-10 18:50:00,
2013-11-10 14:05:00,49.7,31.0,30.36,West,267,9.0,9.0,49,0.00,,,0.00,568,weatherlink.com 1.10,2013-11-10 19:05:00,
2013-11-10 14:20:00,50.1,31.0,30.36,WNW,294,1.0,7.0,48,0.00,,,0.00,503,weatherlink.com 1.10,2013-11-10 19:20:00,
2013-11-10 14:35:00,51.0,32.0,30.36,SSW,213,1.0,7.0,48,0.00,,,0.00,510,weatherlink.com 1.10,2013-11-10 19:35:00,
2013-11-10 14:50:00,50.9,31.0,30.36,NNW,329,2.0,8.0,47,0.00,,,0.00,473,weatherlink.com 1.10,2013-11-10 19:50:00,
2013-11-10 15:05:00,50.7,31.0,30.36,WNW,292,4.0,9.0,47,0.00,,,0.00,439,weatherlink.com 1.10,2013-11-10 20:05:00,
2013-11-10 15:20:00,50.7,32.0,30.36,West,271,5.0,7.0,49,0.00,,,0.00,401,weatherlink.com 1.10,2013-11-10 20:20:00,
2013-11-10 15:35:00,50.6,30.0,30.36,WNW,299,5.0,6.0,46,0.00,,,0.00,360,weatherlink.com 1.10,2013-11-10 20:35:00,
2013-11-10 15:50:00,50.5,30.0,30.36,West,277,2.0,7.0,45,0.00,,,0.00,315,weatherlink.com 1.10,2013-11-10 20:50:00,
2013-11-10 16:05:00,50.4,30.0,30.36,West,264,7.0,8.0,46,0.00,,,0.00,264,weatherlink.com 1.10,2013-11-10 21:05:00,
2013-11-10 16:20:00,50.5,30.0,30.36,West,281,2.0,6.0,45,0.00,,,0.00,207,weatherlink.com 1.10,2013-11-10 21:20:00,
2013-11-10 16:35:00,50.6,30.0,30.36,NNE,22,0.0,2.0,45,0.00,,,0.00,144,weatherlink.com 1.10,2013-11-10 21:35:00,
2013-11-10 16:50:00,50.0,29.0,30.36,West,273,0.0,5.0,45,0.00,,,0.00,95,weatherlink.com 1.10,2013-11-10 21:50:00,
2013-11-10 17:06:00,49.8,30.0,30.36,West,273,0.0,1.0,46,0.00,,,0.00,19,weatherlink.com 1.10,2013-11-10 22:06:00,
2013-11-10 17:21:00,48.1,29.0,30.36,West,273,0.0,2.0,48,0.00,,,0.00,12,weatherlink.com 1.10,2013-11-10 22:21:00,
2013-11-10 17:36:00,46.5,30.0,30.36,West,273,0.0,0.0,52,0.00,,,0.00,5,weatherlink.com 1.10,2013-11-10 22:36:00,
2013-11-10 17:51:00,44.9,29.0,30.36,West,273,0.0,0.0,53,0.00,,,0.00,0,weatherlink.com 1.10,2013-11-10 22:51:00,
2013-11-10 18:06:00,43.5,28.0,30.36,West,273,0.0,1.0,55,0.00,,,0.00,0,weatherlink.com 1.10,2013-11-10 23:06:00,
2013-11-10 18:21:00,42.7,28.0,30.37,West,273,0.0,0.0,56,0.00,,,0.00,0,weatherlink.com 1.10,2013-11-10 23:21:00,
2013-11-10 18:36:00,42.1,28.0,30.37,West,273,0.0,0.0,57,0.00,,,0.00,0,weatherlink.com 1.10,2013-11-10 23:36:00,
2013-11-10 18:51:00,41.3,28.0,30.38,West,273,0.0,2.0,59,0.00,,,0.00,0,weatherlink.com 1.10,2013-11-10 23:51:00,
2013-11-10 19:06:00,41.2,28.0,30.39,West,273,1.0,2.0,60,0.00,,,0.00,0,weatherlink.com 1.10,2013-11-11 00:06:00,
2013-11-10 19:21:00,41.3,28.0,30.38,West,273,1.0,1.0,60,0.00,,,0.00,0,weatherlink.com 1.10,2013-11-11 00:21:00,
2013-11-10 19:36:00,41.1,28.0,30.38,West,273,0.0,0.0,60,0.00,,,0.00,0,weatherlink.com 1.10,2013-11-11 00:36:00,
2013-11-10 19:51:00,40.6,28.0,30.38,West,273,0.0,1.0,61,0.00,,,0.00,0,weatherlink.com 1.10,2013-11-11 00:51:00,
2013-11-10 20:06:00,40.3,28.0,30.38,West,273,0.0,0.0,62,0.00,,,0.00,0,weatherlink.com 1.10,2013-11-11 01:06:00,
2013-11-10 20:21:00,39.8,28.0,30.38,West,273,0.0,0.0,64,0.00,,,0.00,0,weatherlink.com 1.10,2013-11-11 01:21:00,
2013-11-10 20:36:00,39.1,28.0,30.37,West,273,0.0,0.0,64,0.00,,,0.00,0,weatherlink.com 1.10,2013-11-11 01:36:00,
2013-11-10 20:51:00,37.8,28.0,30.37,West,273,0.0,0.0,67,0.00,,,0.00,0,weatherlink.com 1.10,2013-11-11 01:51:00,
2013-11-10 21:06:00,37.2,27.0,30.36,West,273,0.0,0.0,68,0.00,,,0.00,0,weatherlink.com 1.10,2013-11-11 02:06:00,
2013-11-10 21:21:00,36.8,27.0,30.36,West,273,0.0,0.0,69,0.00,,,0.00,0,weatherlink.com 1.10,2013-11-11 02:21:00,
2013-11-10 21:36:00,37.1,28.0,30.36,West,273,0.0,1.0,70,0.00,,,0.00,0,weatherlink.com 1.10,2013-11-11 02:36:00,
2013-11-10 21:51:00,37.1,28.0,30.37,West,273,0.0,0.0,70,0.00,,,0.00,0,weatherlink.com 1.10,2013-11-11 02:51:00,
2013-11-10 22:06:00,37.2,28.0,30.37,West,273,0.0,0.0,69,0.00,,,0.00,0,weatherlink.com 1.10,2013-11-11 03:06:00,
2013-11-10 22:21:00,37.1,29.0,30.36,West,273,0.0,0.0,73,0.00,,,0.00,0,weatherlink.com 1.10,2013-11-11 03:21:00,
2013-11-10 22:36:00,36.3,28.0,30.37,West,273,0.0,0.0,71,0.00,,,0.00,0,weatherlink.com 1.10,2013-11-11 03:36:00,
2013-11-10 22:51:00,35.5,28.0,30.36,West,273,0.0,0.0,74,0.00,,,0.00,0,weatherlink.com 1.10,2013-11-11 03:51:00,
2013-11-10 23:06:00,34.6,28.0,30.35,West,273,0.0,0.0,77,0.00,,,0.00,0,weatherlink.com 1.10,2013-11-11 04:06:00,
2013-11-10 23:21:00,34.5,28.0,30.35,West,273,0.0,1.0,76,0.00,,,0.00,0,weatherlink.com 1.10,2013-11-11 04:21:00,
2013-11-10 23:36:00,35.4,28.0,30.35,West,273,0.0,0.0,74,0.00,,,0.00,0,weatherlink.com 1.10,2013-11-11 04:36:00,
2013-11-10 23:51:00,36.4,29.0,30.34,West,273,0.0,0.0,73,0.00,,,0.00,0,weatherlink.com 1.10,2013-11-11 04:51:00,